Agadir Al Massira, Morocco

8:56 PM WEST on September 25, 2017 (GMT +0100)
Agadir Al Massira

Weather History for GMAD - November, 2012

Change the Weather History Date:

Monday, November 5, 2012

  Actual Average Record
Temperature  
Mean Temperature 78 °F -  
Max Temperature 89 °F - - ()
Min Temperature 67 °F - - ()
Cooling Degree Days 13    
Growing Degree Days 28 (Base 50)    
Moisture  
Dew Point 62 °F    
Average Humidity 59    
Maximum Humidity 88    
Minimum Humidity 34    
Precipitation  
Precipitation 0.00 in - - ()
Sea Level Pressure  
Sea Level Pressure 29.96 in    
Wind  
Wind Speed 5 mph ()    
Max Wind Speed 16 mph    
Max Gust Speed -    
Visibility 6.1 miles    
Events Rain    
T = Trace of Precipitation, MM = Missing Value Source: Averaged Metar Reports

Daily Weather History Graph

Daily Weather History Graph

Search for Another Location

Airport or City:

Trip Planner

Search our weather history database for the weather conditions in past years. The results will help you decide how hot, cold, wet, or windy it might be!

Date:

Astronomy

Nov. 05, 2012 Rise Set
Actual Time 6:55 AM WET 5:46 PM WET
Civil Twilight 6:30 AM WET 6:11 PM WET
Nautical Twilight 6:01 AM WET 6:40 PM WET
Astronomical Twilight 5:33 AM WET 7:08 PM WET
Moon 11:11 PM WET (11/5) 12:05 PM WET (11/5)
Length of Visible Light 11h 41m
Length of Day
10h 51m
Waning Gibbous, 65% of the Moon is Illuminated
Nov 5
Waning Gibbous
Nov 7
Last Quarter
Nov 13
New
Nov 20
First Quarter
Nov 28
Full

Hourly Weather History & Observations

Time (WET) Temp. Heat Index Dew Point Humidity Pressure Visibility Wind Dir Wind Speed Gust Speed Precip Events Conditions
12:00 AM 73 °F - 63 °F 62% 30.00 in 6 mi SSE 3.5 mph - -   Clear
12:00 AM 73.4 °F - 62.6 °F 69% 30.01 in - SSE 3.5 mph - N/A   Clear
1:00 AM 71.6 °F - 64.4 °F 78% 29.98 in - Calm Calm - N/A   Clear
2:00 AM 69.8 °F - 64.4 °F 83% 29.98 in - Calm Calm - N/A   Clear
3:00 AM 68 °F - 64 °F 84% 29.96 in 6 mi ENE 2.3 mph - -   Partly Cloudy
3:00 AM 68.0 °F - 64.4 °F 88% 29.95 in - ENE 2.3 mph - N/A   Clear
4:00 AM 69.8 °F - 64.4 °F 83% 29.95 in - East 5.8 mph - N/A   Clear
5:00 AM 69.8 °F - 64.4 °F 83% 29.95 in - NE 6.9 mph - N/A   Clear
6:00 AM 70 °F - 66 °F 82% 29.95 in 6 mi NE 10.4 mph - -   Partly Cloudy
6:00 AM 69.8 °F - 66.2 °F 88% 29.95 in - NE 10.4 mph - N/A   Clear
7:00 AM 69.8 °F - 62.6 °F 78% 29.95 in - ENE 9.2 mph - N/A   Clear
8:00 AM 71.6 °F - 62.6 °F 73% 29.95 in 6.2 mi East 5.8 mph - N/A   Unknown
9:00 AM 75 °F - 63 °F 59% 29.98 in 6 mi ENE 5.8 mph - -   Clear
9:00 AM 75.2 °F - 62.6 °F 65% 29.98 in - ENE 5.8 mph - N/A   Clear
10:00 AM 78.8 °F - 64.4 °F 61% 29.98 in - NNE 4.6 mph - N/A   Clear
11:00 AM 82.4 °F 83.9 °F 64.4 °F 54% 29.98 in - ENE 6.9 mph - N/A   Clear
12:00 PM 86 °F - 62 °F 35% 29.95 in 6 mi ENE 3.5 mph - -   Clear
12:00 PM 86.0 °F 87.3 °F 64.4 °F 48% 29.95 in - ENE 3.5 mph - N/A   Clear
1:00 PM 87.8 °F 89.4 °F 64.4 °F 46% 29.92 in - Variable 1.2 mph - N/A   Clear
2:00 PM 86.0 °F 86.1 °F 60.8 °F 43% 29.92 in 6.2 mi West 12.7 mph - N/A   Partly Cloudy
3:00 PM 85 °F - 63 °F 38% 29.91 in 6 mi West 10.4 mph - -   Scattered Clouds
3:00 PM 84.2 °F 85.0 °F 62.6 °F 48% 29.92 in 6.2 mi West 10.4 mph - N/A   Scattered Clouds
4:00 PM 86.0 °F 86.1 °F 60.8 °F 43% 29.92 in 6.2 mi West 16.1 mph - N/A   Partly Cloudy
5:00 PM 84.2 °F 83.5 °F 57.2 °F 40% 29.92 in 6.2 mi West 10.4 mph - N/A   Partly Cloudy
6:00 PM 79 °F - 56 °F 34% 29.94 in 6 mi West 13.8 mph - -   Scattered Clouds
6:00 PM 78.8 °F - 55.4 °F 44% 29.95 in 6.2 mi West 13.8 mph - N/A   Scattered Clouds
7:00 PM 77.0 °F - 57.2 °F 50% 29.95 in 6.2 mi West 11.5 mph - N/A   Scattered Clouds
8:00 PM 78.8 °F - 55.4 °F 44% 29.98 in 6.2 mi West 10.4 mph - N/A   Scattered Clouds
9:00 PM 78 °F - 55 °F 34% 30.00 in 6 mi West 12.7 mph - -   Scattered Clouds
9:00 PM 78.8 °F - 55.4 °F 44% 30.01 in 6.2 mi West 12.7 mph - N/A   Scattered Clouds
10:00 PM 75.2 °F - 57.2 °F 53% 30.01 in 6.2 mi West 5.8 mph - N/A   Unknown
11:00 PM 75.2 °F - 59.0 °F 57% 30.04 in 6.2 mi West 4.6 mph - N/A Rain Rain